{"data":{"norad_id":67272,"epoch":"2026-09-20T22:44:57.035904Z","epoch_age_seconds":64370,"freshness":"FRESH","line1":"1 67272U 25313AA  26263.94788236  .00006112  00000+0  24400-3 0  9996","line2":"2 67272  97.3856 337.4928 0014350  33.4533 326.7609 15.25426089 40553","mean_motion":15.25426089,"eccentricity":0.001435,"inclination_deg":97.3856,"raan_deg":337.4928,"arg_perigee_deg":33.4533,"mean_anomaly_deg":326.7609,"bstar":0.000244,"rev_number":4055,"period_min":94.399853941399,"perigee_km":479.65120020296,"apogee_km":499.36133638296,"semimajor_km":6867.643268293,"source":"CELESTRAK","updated_at":"2026-09-21T09:00:16.543977Z"}}